Location: Celina Division
(33.3022°N, 96.7580°W)
Time: 06:27:52
(UTC+00:00)

Cosmos 1602 - Pass Details

Date: 08 December 2021
Orbit: 512 x 530 km, 82.5° (Epoch: 17 January)

Event Time Altitude Azimuth Distance (km) Brightness Sun altitude
Rises 12:41:00 0° 202° (SSW) 2,610 7.3 -8.0°
Reaches altitude 10° 12:43:14 10° 211° (SSW) 1,728 6.3 -7.5°
Maximum altitude 12:46:45 36° 280° (W) 819 4.2 -6.9°
Drops below altitude 10° 12:50:18 10° 348° (NNW) 1,740 6.0 -6.2°
Sets 12:52:33 0° 357° (N) 2,631 7.0 -5.8°
